Location: Holyhead Bay
(53.3667°N, 4.6667°W)
Time: 22:04:03
(UTC+00:00)

Cosmos 1408 Rocket - Pass Details

Date: 15 April 2021
Orbit: 601 x 631 km, 82.6° (Epoch: 16 May)

Event Time Altitude Azimuth Distance (km) Brightness Sun altitude
Rises 00:09:21 0° 336° (NNW) 2,866 8.0 -26.8°
Reaches altitude 10° 00:12:14 10° 316° (NW) 1,956 6.7 -26.8°
Enters shadow 00:14:43 16° 281° (W) 1,572 5.7 -26.9°
